Track ONEWEB-0304 now! 10-day predictions ONEWEB-0304 is classified as:
1 49092U 21075T 22140.25001157 .00026488 00000-0 68009-1 0 9991 2 49092 87.9043 301.8260 0001866 98.6887 40.2220 13.17631347 38472